Regional Weather Roundup
Issued by NWS

Home | Current Version | Previous Version | Text Only | Print | Product List | Glossary On
Versions: 1 2 3 4 5 6 7 8 9 10 11 12 13 14 15 16 17 18 19 20 21 22 23 24 25 26 27 28 29 30 31 32 33 34 35 36 37 38 39 40 41 42 43 44 45 46 47 48 49 50
000
ASUS43 KIND 181859
RWRIN

WEATHER ROUNDUP FOR INDIANA
NATIONAL WEATHER SERVICE INDIANAPOLIS IN
200 PM EST THU DEC 18 2014

NOTE: "FAIR" INDICATES FEW OR NO CLOUDS BELOW 12,000 FEET WITH NO
SIGNIFICANT WEATHER AND/OR OBSTRUCTIONS TO VISIBILITY.

* - STATION DOES NOT REPORT WEATHER SUCH AS PRECIPITATION OR FOG.

+ - STATION NOT QUALITY CONTROLLED BY THE NATIONAL WEATHER SERVICE.
    USE DATA WITH CAUTION...ESPECIALLY DEWPOINT AND RELATIVE
    HUMIDITY OBSERVATIONS.

INZ001>003-010>013-019-020-182000-
NORTHWEST INDIANA

CITY           SKY/WX    TMP DP  RH WIND       PRES   REMARKS
VALPARAISO     NOT AVBL

$$

LMZ046-743>745-182000-
SOUTHERN LAKE MICHIGAN

STATION/POSITION TIME  TEMP WIND        PRES
                       AIR  DIR/SP/G
                 (UTC) (F)  (DEG/KT/KT) (MB)

$$

INZ004-005-014>016-021>024-182000-
NORTH CENTRAL INDIANA

CITY           SKY/WX    TMP DP  RH WIND       PRES   REMARKS
ELKHART        CLOUDY    28  21  74 W6        30.22F WCI  22
GOSHEN         CLOUDY    27  23  85 W10       30.21F WCI  17
SOUTH BEND     CLOUDY    28  22  78 W8        30.23F WCI  20

$$

INZ006>009-017-018-025>027-182000-
NORTHEAST INDIANA

CITY           SKY/WX    TMP DP  RH WIND       PRES   REMARKS
ANGOLA *+      CLOUDY    27  25  93 NW8       30.18F WCI  18
FORT WAYNE     CLOUDY    27  22  81 W9        30.23F WCI  18

$$

INZ028-029-035-036-043>045-051>053-182000-
WEST CENTRAL INDIANA

CITY           SKY/WX    TMP DP  RH WIND       PRES   REMARKS
GREENCASTLE +  CLOUDY    28  19  69 CALM      30.24F
LAFAYETTE      CLOUDY    26  18  71 VRB3      30.25F
TERRE HAUTE    CLOUDY    29  21  72 CALM      30.24F

$$

INZ030>032-037>040-046>048-054>057-064-065-182000-
CENTRAL INDIANA

CITY           SKY/WX    TMP DP  RH WIND       PRES   REMARKS
COLUMBUS       CLOUDY    27  21  80 CALM      30.24F
INDIANAPOLIS   LGT SNOW  26  20  77 CALM      30.22F FOG
-EAGLE CREEK   CLOUDY    27  21  78 NW5       30.22F WCI  22
KOKOMO *+      CLOUDY    27  19  74 NW5       30.23F WCI  21
MT COMFORT *+  CLOUDY    27  19  74 CALM      30.22  VSB 1/2
SHELBYVILLE    CLOUDY    28  21  75 CALM      30.23F

$$

INZ033-034-041-042-049-050-058-059-182000-
EAST CENTRAL INDIANA

CITY           SKY/WX    TMP DP  RH WIND       PRES   REMARKS
MUNCIE         CLOUDY    27  20  75 W5        30.23F WCI  22

$$

INZ060-061-067>069-081>083-085>088-182000-
SOUTHWEST INDIANA

CITY           SKY/WX    TMP DP  RH WIND       PRES   REMARKS
EVANSVILLE     CLOUDY    33  25  72 W3        30.26F
HUNTINGBURG *+ CLOUDY    32  23  69 W5        30.25F WCI  27

$$

INZ062-063-066-070>080-084-089>092-182000-
SOUTH CENTRAL AND SOUTHEAST INDIANA

CITY           SKY/WX    TMP DP  RH WIND       PRES   REMARKS
BLOOMINGTON    CLOUDY    29  22  75 CALM      30.22F

$$



USA.gov is the U.S. government's official web portal to all federal, state and local government web resources and services.